User: anonymous   Login
Location: Ballingbuur
(53.0000°N, 5.7667°E)
Time: 07:09:20
(UTC+00:00)
Language:

ATLAS 5 CENTAUR R/B - Orbit

View from above orbital plane
View from above orbital plane
View from above satellite
View from above satellite

Ground track
Ground track

The orbit data is extracted from the following two-line orbital elements,

1 32379U 07060B   21057.40852104  .00008789  00000-0  64230-3 0  9996
2 32379  60.7570  32.7583 5129555 112.0302 308.9092  5.46371786 32014
Epoch (UTC): 26 February 2021 09:48:16
Eccentricity: 0.5129555
inclination: 60.7570°
perigee height: 254 km
apogee height: 14223 km
right ascension of ascending node: 32.7583°
argument of perigee: 112.0302°
revolutions per day: 5.46371786
mean anomaly at epoch: 308.9092°
orbit number at epoch: 3201

The dashed part of the orbit path shows where the satellite is in the earth's shadow,  

DLR